Location: Unspecified
(0.0000°N, 0.0000°E)
Time: 22:39:20
(UTC+00:00)

deb Explorer IX - All Passes

Search period start: 28 May 2022 00:00
Search period end: 07 June 2022 00:00
Orbit: 535 x 1070 km, 38.8° (Epoch: 27 May)

Date Brightness Start Highest point End Pass type
(mag) Time Alt. Az. Time Alt. Az. Time Alt. Az.
28 May - 05:43:36 10° SSW 05:49:20 32° SE 05:55:30 10° ENE daylight
28 May - 07:29:33 10° WSW 07:36:12 52° NW 07:43:07 10° NE daylight
28 May - 09:22:22 10° NW 09:23:35 10° NW 09:24:48 10° NNW daylight
28 May - 18:24:56 10° NW 18:29:19 60° NE 18:33:21 10° ESE visible
28 May - 20:14:11 10° WSW 20:15:29 11° SW 20:16:47 10° SSW visible
29 May - 05:14:40 10° SSW 05:20:07 29° SE 05:25:59 10° E visible
29 May - 07:00:20 10° WSW 07:06:55 56° NW 07:13:53 10° NE daylight
29 May - 08:52:05 10° NW 08:54:18 11° NW 08:56:30 10° NNW daylight
29 May - 17:55:49 10° NW 18:00:19 54° NE 18:04:23 10° ESE daylight
29 May - 19:44:32 10° WSW 19:46:28 13° SW 19:48:20 10° SSW visible
30 May - 04:45:45 10° SSW 04:50:52 27° SE 04:56:26 10° E visible
30 May - 06:31:09 10° WSW 06:37:36 60° NW 06:44:36 10° NE daylight
30 May - 08:22:12 10° WNW 08:24:59 12° NW 08:27:47 10° NNW daylight
30 May - 17:26:39 10° NW 17:31:16 49° NE 17:35:23 10° ESE daylight
30 May - 19:15:00 10° WSW 19:17:25 15° SW 19:19:45 10° S visible
31 May - 04:16:53 10° S 04:21:38 24° SE 04:26:49 10° E visible
31 May - 06:01:58 10° WSW 06:08:18 65° NW 06:15:17 10° NE daylight
31 May - 07:52:28 10° WNW 07:55:39 13° NW 07:58:54 10° N daylight
31 May - 16:57:27 10° NNW 17:02:11 45° NE 17:06:22 10° ESE daylight
31 May - 18:45:28 10° W 18:48:21 17° SW 18:51:05 10° S visible
01 Jun - 03:48:02 10° S 03:52:23 21° SE 03:57:08 10° E visible
01 Jun - 05:32:48 10° SW 05:39:00 70° NW 05:45:56 10° NE visible
01 Jun - 07:22:49 10° WNW 07:26:18 14° NW 07:29:53 10° N daylight
01 Jun - 16:28:12 10° NNW 16:33:04 41° NE 16:37:19 10° ESE daylight
01 Jun - 18:15:57 10° W 18:19:16 19° SW 18:22:21 10° S visible
02 Jun - 03:19:15 10° S 03:23:09 19° SE 03:27:23 10° E visible
02 Jun - 05:03:39 10° SW 05:09:41 75° NW 05:16:31 10° NE visible
02 Jun - 06:53:15 10° WNW 06:56:56 15° NW 07:00:46 10° N daylight
02 Jun - 15:58:55 10° NNW 16:03:55 39° NE 16:08:14 10° ESE daylight
02 Jun - 17:46:26 10° W 17:50:09 22° SW 17:53:33 10° S daylight
03 Jun - 02:50:31 10° S 02:53:54 16° SE 02:57:33 10° E visible
03 Jun - 04:34:31 10° SW 04:40:21 81° NW 04:47:05 10° NE visible
03 Jun - 06:23:44 10° WNW 06:27:34 16° NW 06:31:36 10° N daylight
03 Jun - 15:29:36 10° NNW 15:34:42 36° NE 15:39:08 10° ESE daylight
03 Jun - 17:16:53 10° W 17:21:00 25° SW 17:24:43 10° SSE daylight
04 Jun - 02:21:52 10° S 02:24:38 14° SE 02:27:36 10° ESE visible
04 Jun - 04:05:23 10° SW 04:11:02 87° NW 04:17:37 10° NE visible
04 Jun - 05:54:14 10° WNW 05:58:11 17° NW 06:02:22 10° N daylight
04 Jun - 15:00:15 10° NNW 15:05:27 34° NE 15:09:59 10° ESE daylight
04 Jun - 16:47:19 10° WNW 16:51:50 29° SW 16:55:50 10° SSE daylight
05 Jun - 01:53:25 10° SSE 01:55:23 12° SE 01:57:27 10° ESE visible
05 Jun - 03:36:16 10° SW 03:41:44 86° SE 03:48:06 10° NE visible
05 Jun - 05:24:48 10° WNW 05:28:47 18° NW 05:33:05 10° N visible
05 Jun - 14:30:52 10° NNW 14:36:09 32° NE 14:40:47 10° E daylight
05 Jun - 16:17:45 10° WNW 16:22:37 33° SW 16:26:54 10° SSE daylight
06 Jun - 03:07:10 10° SW 03:12:25 78° SE 03:18:35 10° NE visible
06 Jun - 04:55:22 10° WNW 04:59:23 19° NW 05:03:45 10° N visible
06 Jun - 14:01:27 10° NNW 14:06:49 31° NE 14:11:33 10° E daylight
06 Jun - 15:48:09 10° WNW 15:53:22 38° SW 15:57:55 10° SSE daylight
